| time (UTC) | temp F | wind direction | speed MPH | gust MPH | rain 1hr in | rain 24hr in | rain mn in | humidity % | barometer mb |
| 20260505224549 | 68 | 160 | 0.0 | 10.0 | 0.00 | 0.11 | 0.11 | 55 | 1013.5 |
| 20260505224524 | 55 | 212 | 1.0 | 3.0 | 0.00 | 0.28 | 0.28 | 70 | 1012.4 |
| 20260505223049 | 68 | 184 | 0.0 | 1.0 | 0.00 | 0.11 | 0.11 | 55 | 1013.6 |
| 20260505223018 | 54 | 212 | 0.0 | 4.0 | 0.00 | 0.28 | 0.28 | 71 | 1012.4 |
| 20260505221548 | 68 | 148 | 0.0 | 5.0 | 0.00 | 0.11 | 0.11 | 56 | 1013.8 |
| 20260505221515 | 54 | 257 | 0.0 | 3.0 | 0.00 | 0.28 | 0.28 | 71 | 1012.6 |
| 20260505220049 | 68 | 156 | 0.0 | 1.0 | 0.00 | 0.11 | 0.11 | 53 | 1013.8 |
| 20260505220026 | 54 | 203 | 1.0 | 4.0 | 0.00 | 0.28 | 0.28 | 71 | 1012.5 |
| 20260505214603 | 68 | 224 | 0.0 | 10.0 | 0.00 | 0.11 | 0.11 | 52 | 1013.9 |
| 20260505214521 | 53 | 319 | 0.0 | 4.0 | 0.00 | 0.28 | 0.28 | 73 | 1012.7 |
| 20260505213057 | 69 | 151 | 0.0 | 9.0 | 0.00 | 0.11 | 0.11 | 52 | 1014.0 |
| 20260505213013 | 53 | 319 | 4.0 | 8.0 | 0.00 | 0.28 | 0.28 | 71 | 1012.6 |
| 20260505211545 | 68 | 167 | 0.0 | 6.0 | 0.00 | 0.11 | 0.11 | 55 | 1014.0 |
| 20260505211513 | 53 | 9 | 0.0 | 2.0 | 0.00 | 0.28 | 0.28 | 73 | 1012.7 |
| 20260505210047 | 68 | 120 | 0.0 | 11.0 | 0.00 | 0.11 | 0.11 | 53 | 1014.1 |
| 20260505210012 | 53 | 45 | 1.0 | 3.0 | 0.00 | 0.28 | 0.28 | 71 | 1012.8 |
| 20260505204553 | 68 | 163 | 3.0 | 16.0 | 0.00 | 0.11 | 0.11 | 56 | 1014.1 |
| 20260505204523 | 53 | 17 | 1.0 | 4.0 | 0.00 | 0.28 | 0.28 | 71 | 1012.9 |
| 20260505203046 | 68 | 135 | 0.0 | 0.0 | 0.00 | 0.11 | 0.11 | 58 | 1014.1 |
| 20260505203011 | 52 | 314 | 3.0 | 6.0 | 0.00 | 0.28 | 0.28 | 72 | 1013.1 |
| 20260505201539 | 68 | 159 | 0.0 | 1.0 | 0.00 | 0.11 | 0.11 | 59 | 1014.1 |
| 20260505201510 | 52 | 33 | 2.0 | 5.0 | 0.00 | 0.28 | 0.28 | 73 | 1013.0 |
| 20260505200037 | 67 | 131 | 0.0 | 0.0 | 0.00 | 0.11 | 0.11 | 59 | 1014.3 |
| 20260505200011 | 52 | 31 | 0.0 | 2.0 | 0.00 | 0.28 | 0.28 | 74 | 1013.1 |
| 20260505194543 | 67 | 157 | 0.0 | 0.0 | 0.00 | 0.11 | 0.11 | 60 | 1014.3 |
| 20260505194510 | 51 | 338 | 2.0 | 5.0 | 0.00 | 0.28 | 0.28 | 74 | 1013.2 |
| 20260505193033 | 66 | 168 | 0.0 | 1.0 | 0.00 | 0.11 | 0.11 | 59 | 1014.6 |
| 20260505191529 | 65 | 143 | 0.0 | 1.0 | 0.00 | 0.11 | 0.11 | 63 | 1014.7 |
| 20260505191509 | 51 | 9 | 2.0 | 4.0 | 0.00 | 0.28 | 0.28 | 77 | 1013.2 |
| 20260505190129 | 64 | 148 | 0.0 | 1.0 | 0.00 | 0.11 | 0.11 | 66 | 1014.7 |
| 20260505190024 | 51 | 31 | 2.0 | 6.0 | 0.00 | 0.28 | 0.28 | 74 | 1013.4 |
| 20260505184527 | 65 | 155 | 0.0 | 1.0 | 0.00 | 0.11 | 0.11 | 65 | 1014.8 |
| 20260505184508 | 51 | 13 | 2.0 | 5.0 | 0.00 | 0.28 | 0.28 | 75 | 1013.3 |
| 20260505183026 | 65 | 149 | 0.0 | 0.0 | 0.00 | 0.11 | 0.11 | 65 | 1014.7 |
| 20260505183015 | 50 | 106 | 1.0 | 4.0 | 0.00 | 0.28 | 0.28 | 75 | 1013.3 |
| 20260505181524 | 65 | 134 | 0.0 | 0.0 | 0.00 | 0.11 | 0.11 | 65 | 1014.6 |
| 20260505181510 | 50 | 123 | 2.0 | 6.0 | 0.00 | 0.28 | 0.28 | 77 | 1013.5 |
| 20260505180043 | 65 | 164 | 0.0 | 1.0 | 0.00 | 0.11 | 0.11 | 69 | 1014.5 |
| 20260505180006 | 50 | 136 | 2.0 | 6.0 | 0.00 | 0.28 | 0.28 | 80 | 1013.3 |
| 20260505174542 | 64 | 158 | 0.0 | 0.0 | 0.00 | 0.11 | 0.11 | 70 | 1014.4 |
| 20260505174506 | 49 | 144 | 2.0 | 6.0 | 0.00 | 0.28 | 0.28 | 81 | 1013.4 |
| 20260505173022 | 64 | 151 | 0.0 | 0.0 | 0.00 | 0.11 | 0.11 | 71 | 1014.3 |
| 20260505173004 | 49 | 41 | 2.0 | 5.0 | 0.00 | 0.28 | 0.28 | 82 | 1013.5 |
| 20260505171523 | 64 | 136 | 0.0 | 0.0 | 0.00 | 0.11 | 0.11 | 73 | 1014.1 |
| 20260505171512 | 49 | 101 | 1.0 | 3.0 | 0.00 | 0.28 | 0.28 | 84 | 1013.5 |
| 20260505170013 | 63 | 151 | 0.0 | 0.0 | 0.00 | 0.11 | 0.11 | 75 | 1014.1 |
| 20260505170010 | 49 | 56 | 3.0 | 5.0 | 0.00 | 0.28 | 0.28 | 83 | 1013.7 |
| 20260505164511 | 61 | 144 | 0.0 | 0.0 | 0.00 | 0.11 | 0.11 | 81 | 1014.0 |
| 20260505164503 | 49 | 32 | 3.0 | 7.0 | 0.01 | 0.28 | 0.28 | 82 | 1013.8 |
| 20260505163007 | 60 | 141 | 0.0 | 0.0 | 0.00 | 0.11 | 0.11 | 87 | 1013.9 |
| 20260505163002 | 48 | 23 | 3.0 | 6.0 | 0.01 | 0.28 | 0.28 | 81 | 1013.9 |
| 20260505161504 | 58 | 143 | 0.0 | 0.0 | 0.00 | 0.11 | 0.11 | 93 | 1013.8 |
| 20260505161502 | 49 | 4 | 2.0 | 4.0 | 0.01 | 0.28 | 0.28 | 85 | 1013.7 |
| 20260505153110 | 48 | 66 | 1.0 | 4.0 | 0.06 | 0.28 | 0.28 | 84 | 1013.5 |
| 20260505153101 | 56 | 144 | 0.0 | 0.0 | 0.00 | 0.11 | 0.11 | 96 | 1013.8 |
| 20260505151603 | 56 | 143 | 0.0 | 0.0 | 0.00 | 0.11 | 0.11 | 97 | 1013.7 |
| 20260505151558 | 48 | 26 | 2.0 | 4.0 | 0.07 | 0.28 | 0.28 | 85 | 1013.6 |
| 20260505151500 | 56 | 169 | 0.0 | 0.0 | 0.00 | 0.11 | 0.11 | 97 | 1013.7 |
| 20260505150115 | 48 | 354 | 2.0 | 5.0 | 0.09 | 0.28 | 0.28 | 86 | 1013.3 |
| 20260505150105 | 56 | 150 | 0.0 | 0.0 | 0.00 | 0.11 | 0.11 | 97 | 1013.6 |
| 20260505140107 | 54 | 150 | 0.0 | 0.0 | 0.00 | 0.11 | 0.11 | 96 | 1013.1 |
| 20260505124552 | 54 | 150 | 0.0 | 0.0 | 0.00 | 0.11 | 0.11 | 95 | 1012.8 |
| 20260505124542 | 49 | 64 | 1.0 | 3.0 | 0.06 | 0.07 | 0.07 | 82 | 1011.8 |
| 20260505123100 | 54 | 150 | 0.0 | 0.0 | 0.00 | 0.11 | 0.11 | 95 | 1012.8 |
| 20260505121549 | 55 | 150 | 0.0 | 0.0 | 0.00 | 0.11 | 0.11 | 95 | 1012.7 |
| 20260505121536 | 50 | 343 | 0.0 | 5.0 | 0.03 | 0.04 | 0.04 | 68 | 1011.0 |
| 20260505120048 | 55 | 150 | 0.0 | 0.0 | 0.00 | 0.11 | 0.11 | 95 | 1012.6 |
| 20260505120041 | 52 | 20 | 3.0 | 9.0 | 0.01 | 0.02 | 0.02 | 61 | 1010.1 |
| 20260505114546 | 55 | 150 | 0.0 | 0.0 | 0.00 | 0.11 | 0.11 | 95 | 1012.9 |
| 20260505114539 | 53 | 354 | 1.0 | 5.0 | 0.00 | 0.01 | 0.01 | 53 | 1011.2 |
| 20260505113046 | 55 | 150 | 0.0 | 0.0 | 0.00 | 0.11 | 0.11 | 95 | 1013.0 |
| 20260505113024 | 53 | 26 | 3.0 | 10.0 | 0.00 | 0.01 | 0.01 | 52 | 1010.3 |
| 20260505111544 | 55 | 150 | 0.0 | 0.0 | 0.00 | 0.11 | 0.11 | 94 | 1012.9 |
| 20260505111524 | 53 | 69 | 4.0 | 9.0 | 0.00 | 0.01 | 0.01 | 52 | 1010.5 |
| 20260505101538 | 56 | 150 | 0.0 | 0.0 | 0.10 | 0.11 | 0.11 | 93 | 1013.0 |
| 20260505101520 | 54 | 62 | 7.0 | 14.0 | 0.00 | 0.01 | 0.01 | 50 | 1010.2 |
| 20260505100036 | 56 | 150 | 0.0 | 0.0 | 0.10 | 0.10 | 0.10 | 93 | 1012.8 |
| 20260505100023 | 54 | 52 | 8.0 | 14.0 | 0.00 | 0.01 | 0.01 | 49 | 1010.5 |
| 20260505094534 | 56 | 150 | 0.0 | 0.0 | 0.08 | 0.08 | 0.08 | 92 | 1013.1 |
| 20260505094516 | 54 | 12 | 6.0 | 12.0 | 0.00 | 0.01 | 0.01 | 52 | 1010.4 |
| 20260505093037 | 57 | 150 | 0.0 | 0.0 | 0.04 | 0.04 | 0.04 | 92 | 1013.3 |
| 20260505093013 | 54 | 39 | 5.0 | 11.0 | 0.00 | 0.01 | 0.01 | 53 | 1010.0 |
| 20260505091530 | 57 | 150 | 0.0 | 0.0 | 0.00 | 0.00 | 0.00 | 91 | 1013.4 |
| 20260505091512 | 54 | 339 | 6.0 | 12.0 | 0.00 | 0.01 | 0.01 | 54 | 1009.6 |
| 20260505090029 | 57 | 150 | 0.0 | 0.0 | 0.00 | 0.00 | 0.00 | 90 | 1013.5 |
| 20260505090010 | 54 | 18 | 7.0 | 11.0 | 0.00 | 0.01 | 0.01 | 53 | 1009.0 |
| 20260505084529 | 57 | 150 | 0.0 | 0.0 | 0.00 | 0.00 | 0.00 | 90 | 1013.6 |
| 20260505084514 | 54 | 35 | 6.0 | 15.0 | 0.00 | 0.01 | 0.01 | 52 | 1008.8 |
| 20260505083027 | 57 | 150 | 0.0 | 0.0 | 0.00 | 0.00 | 0.00 | 89 | 1013.7 |
| 20260505083010 | 54 | 46 | 7.0 | 14.0 | 0.01 | 0.01 | 0.01 | 52 | 1008.5 |
| 20260505081524 | 57 | 150 | 0.0 | 0.0 | 0.00 | 0.00 | 0.00 | 89 | 1013.9 |
| 20260505081505 | 55 | 49 | 7.0 | 17.0 | 0.01 | 0.01 | 0.01 | 51 | 1008.8 |
| 20260505080025 | 57 | 150 | 0.0 | 0.0 | 0.00 | 0.00 | 0.00 | 88 | 1014.1 |
| 20260505080003 | 55 | 46 | 6.0 | 13.0 | 0.01 | 0.01 | 0.01 | 52 | 1009.6 |
| 20260505074519 | 58 | 148 | 0.0 | 0.0 | 0.00 | 0.00 | 0.00 | 87 | 1014.1 |
| 20260505074502 | 55 | 19 | 6.0 | 15.0 | 0.01 | 0.01 | 0.01 | 53 | 1009.1 |
| 20260505073102 | 55 | 354 | 6.0 | 10.0 | 0.00 | 0.00 | 0.00 | 58 | 1009.6 |
| 20260505073018 | 58 | 148 | 0.0 | 0.0 | 0.00 | 0.00 | 0.00 | 85 | 1014.2 |
| 20260505071558 | 56 | 359 | 2.0 | 13.0 | 0.00 | 0.00 | 0.00 | 52 | 1009.9 |
| 20260505071516 | 59 | 148 | 0.0 | 0.0 | 0.00 | 0.00 | 0.00 | 84 | 1014.2 |
| 20260505070055 | 58 | 359 | 4.0 | 14.0 | 0.00 | 0.00 | 0.00 | 44 | 1009.4 |
| 20260505070014 | 59 | 148 | 0.0 | 0.0 | 0.00 | 0.00 | 0.00 | 85 | 1014.1 |
| 20260505064548 | 58 | 359 | 10.0 | 19.0 | 0.00 | 0.00 | 0.00 | 42 | 1008.6 |
| 20260505064513 | 59 | 148 | 0.0 | 0.0 | 0.00 | 0.00 | 0.00 | 85 | 1014.1 |
| 20260505063044 | 59 | 57 | 13.0 | 21.0 | 0.00 | 0.00 | 0.00 | 41 | 1007.4 |
| 20260505063016 | 59 | 148 | 0.0 | 0.0 | 0.00 | 0.00 | 0.00 | 85 | 1014.3 |
| 20260505061541 | 59 | 70 | 8.0 | 19.0 | 0.00 | 0.00 | 0.00 | 41 | 1007.5 |
| 20260505061512 | 59 | 148 | 0.0 | 0.0 | 0.00 | 0.00 | 0.00 | 84 | 1014.3 |
| 20260505060038 | 60 | 81 | 15.0 | 29.0 | 0.00 | 0.00 | 0.00 | 40 | 1007.2 |
| 20260505060011 | 59 | 148 | 0.0 | 0.0 | 0.00 | 0.00 | 0.00 | 84 | 1014.4 |
| 20260505054534 | 61 | 23 | 15.0 | 29.0 | 0.00 | 0.00 | 0.00 | 39 | 1007.1 |
| 20260505054511 | 59 | 148 | 0.0 | 0.0 | 0.00 | 0.00 | 0.00 | 84 | 1014.6 |
| 20260505053029 | 63 | 31 | 14.0 | 24.0 | 0.00 | 0.00 | 0.00 | 39 | 1006.9 |
| 20260505053010 | 59 | 148 | 0.0 | 0.0 | 0.00 | 0.00 | 0.00 | 84 | 1014.7 |
| 20260505051529 | 59 | 144 | 0.0 | 0.0 | 0.00 | 0.00 | 0.00 | 83 | 1014.6 |
| 20260505051526 | 65 | 33 | 11.0 | 25.0 | 0.00 | 0.00 | 0.00 | 38 | 1006.6 |
| 20260505041536 | 69 | 354 | 6.0 | 17.0 | 0.00 | 0.00 | 0.00 | 39 | 1005.0 |
| 20260505041508 | 59 | 170 | 0.0 | 0.0 | 0.00 | 0.00 | 0.00 | 83 | 1014.8 |
| 20260505040019 | 69 | 341 | 4.0 | 10.0 | 0.00 | 0.00 | 0.00 | 41 | 1004.9 |
| 20260505040010 | 59 | 165 | 0.0 | 0.0 | 0.00 | 0.00 | 0.00 | 82 | 1014.5 |
| 20260505034517 | 70 | 354 | 5.0 | 10.0 | 0.00 | 0.00 | 0.00 | 40 | 1004.8 |
| 20260505034506 | 60 | 153 | 0.0 | 0.0 | 0.00 | 0.00 | 0.00 | 80 | 1014.5 |
| 20260505033016 | 71 | 14 | 8.0 | 15.0 | 0.00 | 0.00 | 0.00 | 40 | 1004.5 |
| 20260505033006 | 60 | 171 | 0.0 | 0.0 | 0.00 | 0.00 | 0.00 | 79 | 1014.4 |
| 20260505031517 | 70 | 64 | 6.0 | 10.0 | 0.00 | 0.00 | 0.00 | 56 | 1004.1 |
| 20260505031505 | 60 | 145 | 0.0 | 0.0 | 0.00 | 0.00 | 0.00 | 78 | 1014.2 |
| 20260505030015 | 67 | 345 | 0.0 | 2.0 | 0.00 | 0.00 | 0.00 | 69 | 1003.9 |
| 20260505030005 | 60 | 137 | 0.0 | 0.0 | 0.00 | 0.00 | 0.00 | 78 | 1014.0 |
| 20260505024517 | 66 | 341 | 6.0 | 12.0 | 0.00 | 0.00 | 0.00 | 72 | 1003.5 |
| 20260505024509 | 60 | 175 | 0.0 | 0.0 | 0.00 | 0.00 | 0.00 | 77 | 1014.0 |
| 20260505023015 | 68 | 208 | 0.0 | 1.0 | 0.00 | 0.00 | 0.00 | 69 | 1002.5 |
| 20260505023004 | 61 | 118 | 0.0 | 0.0 | 0.00 | 0.00 | 0.00 | 78 | 1014.0 |
| 20260505021513 | 69 | 208 | 0.0 | 2.0 | 0.00 | 0.00 | 0.00 | 65 | 1002.3 |
| 20260505021504 | 61 | 167 | 0.0 | 0.0 | 0.00 | 0.00 | 0.00 | 77 | 1014.1 |
| 20260505020017 | 71 | 209 | 1.0 | 3.0 | 0.00 | 0.00 | 0.00 | 61 | 1002.0 |
| 20260505020007 | 62 | 160 | 0.0 | 0.0 | 0.00 | 0.00 | 0.00 | 75 | 1014.1 |
| 20260505014513 | 72 | 205 | 2.0 | 3.0 | 0.00 | 0.00 | 0.00 | 58 | 1001.9 |
| 20260505014502 | 63 | 186 | 0.0 | 0.0 | 0.00 | 0.00 | 0.00 | 74 | 1014.0 |
| 20260505013013 | 73 | 147 | 2.0 | 5.0 | 0.00 | 0.00 | 0.00 | 55 | 1001.8 |
| 20260505013003 | 64 | 160 | 0.0 | 0.0 | 0.00 | 0.00 | 0.00 | 67 | 1014.0 |
| 20260505011512 | 75 | 147 | 0.0 | 3.0 | 0.00 | 0.00 | 0.00 | 52 | 1001.6 |
| 20260505011504 | 64 | 140 | 0.0 | 0.0 | 0.00 | 0.00 | 0.00 | 64 | 1014.0 |
| 20260505010011 | 76 | 206 | 2.0 | 4.0 | 0.00 | 0.00 | 0.00 | 49 | 1001.5 |
| 20260505010001 | 65 | 163 | 0.0 | 0.0 | 0.00 | 0.00 | 0.00 | 65 | 1014.0 |
| 20260505004513 | 77 | 359 | 2.0 | 5.0 | 0.00 | 0.00 | 0.00 | 46 | 1001.4 |
| 20260505004504 | 65 | 164 | 0.0 | 0.0 | 0.00 | 0.00 | 0.00 | 64 | 1014.0 |
| 20260505003101 | 65 | 289 | 0.0 | 0.0 | 0.00 | 0.00 | 0.00 | 62 | 1014.0 |
| 20260505003009 | 78 | 182 | 1.0 | 5.0 | 0.00 | 0.00 | 0.00 | 45 | 1001.2 |
| 20260505001605 | 66 | 174 | 0.0 | 1.0 | 0.00 | 0.00 | 0.00 | 61 | 1014.2 |
| 20260505001510 | 79 | 201 | 3.0 | 9.0 | 0.00 | 0.00 | 0.00 | 44 | 1001.2 |
| 20260505000013 | 79 | 224 | 3.0 | 8.0 | 0.00 | 0.00 | 0.00 | 44 | 1001.3 |
| 20260504234559 | 67 | 179 | 0.0 | 1.0 | 0.00 | 0.00 | 0.00 | 59 | 1014.0 |
| 20260504234508 | 80 | 202 | 1.0 | 8.0 | 0.00 | 0.00 | 0.00 | 46 | 1001.2 |
| 20260504233108 | 67 | 123 | 0.0 | 1.0 | 0.00 | 0.00 | 0.00 | 59 | 1013.9 |
| 20260504233007 | 80 | 228 | 2.0 | 8.0 | 0.00 | 0.00 | 0.00 | 44 | 1001.3 |
| 20260504231603 | 67 | 153 | 0.0 | 1.0 | 0.00 | 0.00 | 0.00 | 60 | 1013.9 |
| 20260504231506 | 80 | 166 | 4.0 | 12.0 | 0.00 | 0.00 | 0.00 | 42 | 1001.3 |
| 20260504230058 | 67 | 130 | 0.0 | 1.0 | 0.00 | 0.00 | 0.00 | 61 | 1013.9 |
| 20260504230014 | 81 | 208 | 6.0 | 15.0 | 0.00 | 0.00 | 0.00 | 41 | 1001.3 |